Weather History for KPWG - September, 2013

Change the Weather History Date:

Wednesday, September 4, 2013

  Actual Average Record
Temperature  
Mean Temperature 90 °F -  
Max Temperature 104 °F 89 °F 107 °F (2000)
Min Temperature 75 °F 68 °F 64 °F (2008)
Cooling Degree Days 24    
Growing Degree Days 40 (Base 50)    
Moisture  
Dew Point 63 °F    
Average Humidity 45    
Maximum Humidity 69    
Minimum Humidity 25    
Precipitation  
Precipitation 0.00 in - - ()
Sea Level Pressure  
Sea Level Pressure 29.98 in    
Wind  
Wind Speed 6 mph (SE)    
Max Wind Speed 18 mph    
Max Gust Speed 24 mph    
Visibility 10 miles    
Events      
Averages and records for this station are not official NWS values.
T = Trace of Precipitation, MM = Missing Value Source: NWS Daily Summary

Daily Weather History Graph

Daily Weather History Graph

Search for Another Location

Airport or City:

Trip Planner

Search our weather history database for the weather conditions in past years. The results will help you decide how hot, cold, wet, or windy it might be!

Date:

Astronomy

Sep. 04, 2013 Rise Set
Actual Time 7:07 AM CDT 7:48 PM CDT
Civil Twilight 6:42 AM CDT 8:13 PM CDT
Nautical Twilight 6:13 AM CDT 8:42 PM CDT
Astronomical Twilight 5:43 AM CDT 9:11 PM CDT
Moon 6:20 AM CDT (9/4) 7:11 PM CDT (9/4)
Length of Visible Light 13h 31m
Length of Day
12h 41m
Waning Crescent, 1% of the Moon is Illuminated
Sep 4
Waning Crescent
Sep 5
New
Sep 12
First Quarter
Sep 19
Full
Sep 26
Last Quarter

Hourly Weather History & Observations

Time (CDT) Temp. Heat Index Dew Point Humidity Pressure Visibility Wind Dir Wind Speed Gust Speed Precip Events Conditions
12:15 AM 82.4 °F 82.9 °F 60.8 °F 48% 29.94 in 10.0 mi West 4.6 mph - N/A   Clear
12:35 AM 82.4 °F 82.9 °F 60.8 °F 48% 29.94 in 10.0 mi Calm Calm - N/A   Clear
12:55 AM 82.4 °F 82.9 °F 60.8 °F 48% 29.94 in 10.0 mi WSW 3.5 mph - N/A   Clear
1:15 AM 80.6 °F 81.1 °F 59.0 °F 48% 29.94 in 10.0 mi Calm Calm - N/A   Clear
1:35 AM 80.6 °F 81.5 °F 60.8 °F 51% 29.94 in 10.0 mi SSW 3.5 mph - N/A   Clear
1:55 AM 80.6 °F 81.1 °F 59.0 °F 48% 29.95 in 10.0 mi Calm Calm - N/A   Clear
2:15 AM 80.6 °F 81.5 °F 60.8 °F 51% 29.96 in 10.0 mi South 6.9 mph - N/A   Clear
2:35 AM 80.6 °F 81.8 °F 62.6 °F 54% 29.95 in 10.0 mi South 11.5 mph - N/A   Clear
2:55 AM 82.4 °F 83.9 °F 64.4 °F 54% 29.96 in 10.0 mi South 9.2 mph - N/A   Clear
3:15 AM 80.6 °F 82.3 °F 64.4 °F 58% 29.96 in 10.0 mi SSW 8.1 mph - N/A   Clear
3:35 AM 80.6 °F 82.3 °F 64.4 °F 58% 29.95 in 10.0 mi SSW 8.1 mph - N/A   Clear
3:55 AM 80.6 °F 82.3 °F 64.4 °F 58% 29.96 in 10.0 mi SSW 5.8 mph - N/A   Clear
4:15 AM 80.6 °F 82.3 °F 64.4 °F 58% 29.96 in 10.0 mi SW 8.1 mph - N/A   Clear
4:35 AM 80.6 °F 82.3 °F 64.4 °F 58% 29.96 in 10.0 mi SW 5.8 mph - N/A   Clear
4:55 AM 80.6 °F 82.3 °F 64.4 °F 58% 29.96 in 10.0 mi WSW 6.9 mph - N/A   Clear
5:15 AM 80.6 °F 82.3 °F 64.4 °F 58% 29.96 in 10.0 mi WSW 5.8 mph - N/A   Clear
5:35 AM 78.8 °F - 62.6 °F 57% 29.97 in 10.0 mi SW 4.6 mph - N/A   Clear
5:55 AM 78.8 °F - 62.6 °F 57% 29.97 in 10.0 mi Calm Calm - N/A   Clear
6:15 AM 77.0 °F - 62.6 °F 61% 29.98 in 10.0 mi Calm Calm - N/A   Clear
6:35 AM 77.0 °F - 62.6 °F 61% 29.99 in 10.0 mi Calm Calm - N/A   Clear
6:55 AM 75.2 °F - 60.8 °F 61% 29.99 in 10.0 mi Calm Calm - N/A   Clear
7:15 AM 75.2 °F - 62.6 °F 65% 30.00 in 10.0 mi East 3.5 mph - N/A   Clear
7:35 AM 75.2 °F - 62.6 °F 65% 30.00 in 10.0 mi NNE 5.8 mph - N/A   Clear
7:55 AM 75.2 °F - 64.4 °F 69% 30.01 in 10.0 mi NNE 4.6 mph - N/A   Clear
8:15 AM 78.8 °F - 64.4 °F 61% 30.02 in 10.0 mi NE 4.6 mph - N/A   Clear
8:35 AM 80.6 °F 82.3 °F 64.4 °F 58% 30.03 in 10.0 mi NE 5.8 mph - N/A   Clear
8:55 AM 82.4 °F 84.6 °F 66.2 °F 58% 30.04 in 10.0 mi ENE 9.2 mph - N/A   Clear
9:15 AM 82.4 °F 84.6 °F 66.2 °F 58% 30.04 in 10.0 mi ENE 6.9 mph - N/A   Clear
9:35 AM 84.2 °F 86.6 °F 66.2 °F 55% 30.04 in 10.0 mi Calm Calm - N/A   Clear
9:55 AM 86.0 °F 88.2 °F 66.2 °F 51% 30.05 in 10.0 mi Calm Calm - N/A   Clear
10:15 AM 86.0 °F 88.2 °F 66.2 °F 51% 30.05 in 10.0 mi NNE 4.6 mph - N/A   Clear
10:35 AM 89.6 °F 92.2 °F 66.2 °F 46% 30.05 in 10.0 mi Calm Calm - N/A   Clear
10:55 AM 89.6 °F 92.2 °F 66.2 °F 46% 30.04 in 10.0 mi Calm Calm - N/A   Clear
11:15 AM 91.4 °F 94.0 °F 66.2 °F 43% 30.04 in 10.0 mi Calm Calm - N/A   Clear
11:35 AM 93.2 °F 96.2 °F 66.2 °F 41% 30.04 in 10.0 mi NNE 3.5 mph - N/A   Clear
11:55 AM 93.2 °F 96.2 °F 66.2 °F 41% 30.04 in 10.0 mi East 5.8 mph - N/A   Clear
12:15 PM 95.0 °F 98.5 °F 66.2 °F 39% 30.03 in 10.0 mi ESE 8.1 mph - N/A   Clear
12:35 PM 98.6 °F 102.8 °F 66.2 °F 35% 30.02 in 10.0 mi ENE 3.5 mph - N/A   Clear
12:55 PM 98.6 °F 102.8 °F 66.2 °F 35% 30.02 in 10.0 mi ESE 4.6 mph - N/A   Clear
1:15 PM 98.6 °F 102.8 °F 66.2 °F 35% 30.01 in 10.0 mi ESE 4.6 mph - N/A   Clear
1:35 PM 100.4 °F 104.9 °F 66.2 °F 33% 30.01 in 10.0 mi East 9.2 mph - N/A   Clear
1:55 PM 100.4 °F 104.9 °F 66.2 °F 33% 30.00 in 10.0 mi South 8.1 mph - N/A   Clear
2:15 PM 100.4 °F 104.9 °F 66.2 °F 33% 29.99 in 10.0 mi Calm Calm - N/A   Clear
2:35 PM 100.4 °F 104.9 °F 66.2 °F 33% 29.99 in 10.0 mi East 11.5 mph 17.3 mph N/A   Clear
2:55 PM 100.4 °F 103.6 °F 64.4 °F 31% 29.97 in 10.0 mi ENE 10.4 mph 16.1 mph N/A   Clear
3:15 PM 100.4 °F 103.6 °F 64.4 °F 31% 29.96 in 10.0 mi ENE 5.8 mph - N/A   Clear
3:35 PM 100.4 °F 103.6 °F 64.4 °F 31% 29.95 in 10.0 mi South 6.9 mph - N/A   Clear
3:55 PM 102.2 °F 105.5 °F 64.4 °F 29% 29.94 in 10.0 mi South 9.2 mph - N/A   Partly Cloudy
4:15 PM 104.0 °F 107.4 °F 64.4 °F 27% 29.93 in 10.0 mi East 9.2 mph - N/A   Clear
4:35 PM 102.2 °F 105.5 °F 64.4 °F 29% 29.93 in 10.0 mi ESE 16.1 mph - N/A   Clear
4:55 PM 102.2 °F 105.5 °F 64.4 °F 29% 29.92 in 10.0 mi ESE 16.1 mph - N/A   Clear
5:15 PM 102.2 °F 104.2 °F 62.6 °F 27% 29.93 in 10.0 mi East 11.5 mph 18.4 mph N/A   Clear
5:35 PM 98.6 °F 100.0 °F 62.6 °F 30% 29.93 in 10.0 mi ENE 9.2 mph - N/A   Clear
5:55 PM 98.6 °F 99.4 °F 60.8 °F 29% 29.92 in 10.0 mi East 9.2 mph - N/A   Clear
6:15 PM 100.4 °F 100.2 °F 59.0 °F 25% 29.92 in 10.0 mi ENE 6.9 mph - N/A   Clear
6:35 PM 98.6 °F 98.5 °F 59.0 °F 27% 29.93 in 10.0 mi ESE 9.2 mph - N/A   Clear
6:55 PM 96.8 °F 95.8 °F 57.2 °F 27% 29.93 in 10.0 mi East 3.5 mph - N/A   Clear
7:15 PM 96.8 °F 95.8 °F 57.2 °F 27% 29.94 in 10.0 mi ESE 3.5 mph - N/A   Clear
7:35 PM 96.8 °F 95.8 °F 57.2 °F 27% 29.94 in 10.0 mi SE 4.6 mph - N/A   Clear
7:55 PM 93.2 °F 91.9 °F 57.2 °F 30% 29.95 in 10.0 mi SE 3.5 mph - N/A   Clear
8:15 PM 91.4 °F 89.9 °F 57.2 °F 31% 29.96 in 10.0 mi Calm Calm - N/A   Clear
8:35 PM 89.6 °F 88.1 °F 57.2 °F 33% 29.97 in 10.0 mi SSE 9.2 mph - N/A   Clear
8:55 PM 89.6 °F 91.1 °F 64.4 °F 43% 29.98 in 10.0 mi SSE 11.5 mph - N/A   Clear
9:15 PM 89.6 °F 91.1 °F 64.4 °F 43% 30.00 in 10.0 mi SE 12.7 mph - N/A   Clear
9:35 PM 87.8 °F 89.4 °F 64.4 °F 46% 30.02 in 10.0 mi East 17.3 mph - N/A   Clear
9:55 PM 84.2 °F 85.0 °F 62.6 °F 48% 30.02 in 10.0 mi ESE 17.3 mph 21.9 mph N/A   Clear
10:15 PM 84.2 °F 85.0 °F 62.6 °F 48% 30.02 in 10.0 mi ESE 12.7 mph - N/A   Clear
10:35 PM 87.8 °F 88.5 °F 62.6 °F 43% 30.03 in 10.0 mi SE 15.0 mph - N/A   Partly Cloudy
10:55 PM 89.6 °F 91.1 °F 64.4 °F 43% 30.03 in 10.0 mi SSE 17.3 mph - N/A   Mostly Cloudy
11:15 PM 87.8 °F 89.4 °F 64.4 °F 46% 30.04 in 10.0 mi South 18.4 mph - N/A   Partly Cloudy
11:35 PM 86.0 °F 87.3 °F 64.4 °F 48% 30.04 in 10.0 mi South 16.1 mph 24.2 mph N/A   Partly Cloudy
11:55 PM 84.2 °F 85.6 °F 64.4 °F 51% 30.05 in 10.0 mi South 17.3 mph 21.9 mph N/A   Scattered Clouds